Location: Unspecified
(0.0000°N, 0.0000°E)
Time: 01:39:00
(UTC+00:00)

Vanguard 3 - All Passes

Search period start: 04 July 2015 00:00
Search period end: 14 July 2015 00:00
Orbit: 509 x 3270 km, 33.3° (Epoch: 03 July)

Date Brightness Start Highest point End Pass type
(mag) Time Alt. Az. Time Alt. Az. Time Alt. Az.
04 Jul - 01:52:05 10° NW 02:05:42 64° NE 02:25:26 10° ESE visible
04 Jul - 04:05:55 10° WNW 04:23:08 60° SSW 04:42:23 10° SE visible
04 Jul - 06:26:53 10° WSW 06:42:40 27° SSW 06:55:45 10° SSE daylight
04 Jul - 08:58:20 10° SSW 09:03:15 12° S 09:07:06 10° S daylight
04 Jul - 11:20:43 10° S 11:22:14 10° S 11:23:49 10° SSE daylight
04 Jul - 13:31:44 10° SSW 13:37:43 27° SSE 13:41:49 10° E daylight
04 Jul - 15:45:32 10° WSW 15:49:43 31° NW 15:53:02 10° NNE daylight
05 Jul - 00:39:36 10° NNW 00:50:24 41° NE 01:07:15 10° ESE visible
05 Jul - 02:51:17 10° WNW 03:06:35 83° SW 03:26:58 10° SE visible
05 Jul - 05:08:15 10° W 05:25:19 38° SSW 05:41:54 10° SSE visible
05 Jul - 07:34:47 10° SW 07:45:57 17° SSW 07:54:41 10° SSE daylight
05 Jul - 10:04:15 10° S 10:06:25 10° S 10:08:27 10° S daylight
05 Jul - 12:17:47 10° SSW 12:23:40 18° SSE 12:28:03 10° ESE daylight
05 Jul - 14:30:59 10° SW 14:37:14 86° SE 14:41:17 10° NE daylight
05 Jul - 23:28:12 10° N 23:35:40 23° NE 23:47:08 10° E visible
06 Jul - 01:37:51 10° NW 01:50:44 71° NE 02:10:25 10° ESE visible
06 Jul - 03:51:53 10° WNW 04:08:11 53° SSW 04:27:16 10° SE visible
06 Jul - 06:13:21 10° WSW 06:28:19 24° SSW 06:41:09 10° SSE daylight
06 Jul - 08:43:26 10° SSW 08:49:38 12° S 08:54:43 10° SSE daylight
06 Jul - 11:03:09 10° SSW 11:08:46 15° S 11:13:22 10° SE daylight
06 Jul - 13:16:36 10° SW 13:24:07 40° SSE 13:28:47 10° E daylight
06 Jul - 15:31:54 10° W 15:35:52 22° NW 15:38:56 10° NNE daylight
07 Jul - 00:25:25 10° NNW 00:35:43 46° NE 00:52:30 10° ESE visible
07 Jul - 02:37:12 10° WNW 02:51:35 73° SW 03:11:44 10° SE visible
07 Jul - 04:54:32 10° W 05:10:40 34° SSW 05:26:55 10° SSE visible
07 Jul - 07:21:14 10° SW 07:32:03 16° SSW 07:40:50 10° SSE daylight
07 Jul - 09:46:59 10° SSW 09:52:54 13° S 09:57:56 10° SSE daylight
07 Jul - 12:02:02 10° SSW 12:10:08 26° SSE 12:15:30 10° ESE daylight
07 Jul - 14:16:33 10° WSW 14:23:24 67° NW 14:27:40 10° NE daylight
07 Jul - 23:13:59 10° NNW 23:21:20 26° NE 23:32:58 10° E visible
08 Jul - 01:23:45 10° NW 01:35:50 81° NE 01:55:13 10° ESE visible
08 Jul - 03:38:02 10° W 03:53:22 47° SSW 04:12:00 10° SE visible
08 Jul - 05:59:59 10° WSW 06:14:05 22° SSW 06:26:35 10° SSE daylight
08 Jul - 08:28:18 10° SSW 08:36:00 14° S 08:42:26 10° SSE daylight
08 Jul - 10:46:55 10° SSW 10:55:13 20° SSE 11:01:19 10° ESE daylight
08 Jul - 13:01:33 10° SW 13:10:24 57° SSE 13:15:31 10° ENE daylight
08 Jul - 15:18:27 10° W 15:21:58 17° NW 15:24:39 10° N daylight
08 Jul - 22:05:23 10° NNE 22:07:13 11° NE 22:10:09 10° NE visible
09 Jul - 00:11:18 10° NW 00:21:02 52° NE 00:37:35 10° ESE visible
09 Jul - 02:23:16 10° WNW 02:36:45 64° SSW 02:56:20 10° SE visible
09 Jul - 04:41:03 10° W 04:56:11 30° SSW 05:11:52 10° SSE visible
09 Jul - 07:07:29 10° SW 07:18:13 16° S 07:27:14 10° SSE daylight
09 Jul - 09:30:46 10° SSW 09:39:19 17° S 09:46:08 10° SE daylight
09 Jul - 11:46:26 10° SW 11:56:28 35° SSE 12:02:36 10° E daylight
09 Jul - 14:02:09 10° WSW 14:09:28 49° NW 14:13:56 10° NE daylight
09 Jul - 22:59:48 10° NNW 23:06:59 29° NE 23:18:39 10° E visible
10 Jul - 01:09:47 10° NW 01:21:03 89° SW 01:39:52 10° SE visible
10 Jul - 03:24:23 10° W 03:38:44 41° SSW 03:56:38 10° SE visible
10 Jul - 05:46:43 10° WSW 05:59:58 20° SSW 06:12:05 10° SSE daylight
10 Jul - 08:13:00 10° SSW 08:22:20 16° S 08:30:08 10° SE daylight
10 Jul - 10:30:56 10° SSW 10:41:33 26° SSE 10:48:46 10° ESE daylight
10 Jul - 12:46:30 10° SW 12:56:33 77° SE 13:02:05 10° ENE daylight
10 Jul - 15:05:15 10° WNW 15:08:02 13° NW 15:10:08 10° NNW daylight
10 Jul - 21:50:26 10° NNE 21:53:14 12° NE 21:57:20 10° ENE visible
10 Jul - 23:57:17 10° NW 00:06:25 60° NE 00:22:31 10° ESE visible
11 Jul - 02:09:30 10° WNW 02:22:04 55° SSW 02:40:49 10° SE visible
11 Jul - 04:27:45 10° WSW 04:41:50 26° SSW 04:56:46 10° SSE visible
11 Jul - 06:53:30 10° SW 07:04:23 16° S 07:13:52 10° SSE daylight
11 Jul - 09:14:46 10° SSW 09:25:36 21° SSE 09:33:50 10° ESE daylight
11 Jul - 11:30:53 10° SW 11:42:41 46° SSE 11:49:26 10° E daylight
11 Jul - 13:47:48 10° WSW 13:55:26 38° NW 14:00:06 10° NNE daylight
11 Jul - 22:45:43 10° NNW 22:52:37 33° NE 23:04:10 10° E visible
12 Jul - 00:55:56 10° WNW 01:06:25 78° SW 01:24:25 10° SE visible
12 Jul - 03:10:56 10° W 03:24:16 35° SSW 03:41:09 10° SE visible
12 Jul - 05:33:29 10° SW 05:45:56 19° S 05:57:42 10° SSE visible
12 Jul - 07:57:37 10° SSW 08:08:34 18° S 08:17:43 10° SE daylight
12 Jul - 10:15:04 10° SW 10:27:45 33° SSE 10:35:52 10° E daylight
12 Jul - 12:31:29 10° SW 12:42:31 83° NW 12:48:30 10° NE daylight
12 Jul - 14:52:45 10° NW 14:54:04 10° NW 14:54:56 10° NNW daylight
12 Jul - 21:35:48 10° NNE 21:39:11 14° NE 21:44:05 10° ENE visible
12 Jul - 23:43:22 10° NW 23:51:52 70° NE 00:07:21 10° ESE night (unlit)
13 Jul - 01:55:54 10° W 02:07:35 47° SSW 02:25:11 10° SE visible
13 Jul - 04:14:38 10° WSW 04:27:37 23° SSW 04:41:39 10° SSE visible
13 Jul - 06:39:15 10° SW 06:50:32 17° S 07:00:43 10° SE daylight
13 Jul - 08:58:52 10° SSW 09:11:46 25° SSE 09:21:12 10° ESE daylight
13 Jul - 11:15:22 10° SW 11:28:41 59° SSE 11:36:03 10° ENE daylight
13 Jul - 13:33:30 10° WSW 13:41:18 31° NW 13:46:09 10° NNE daylight
13 Jul - 22:31:40 10° NNW 22:38:15 38° NE 22:49:35 10° ESE night (unlit)
